TimeCST,TemperatureF,Dew PointF,Humidity,Sea Level PressureIn,VisibilityMPH,Wind Direction,Wind SpeedMPH,Gust SpeedMPH,PrecipitationIn,Events,Conditions,WindDirDegrees,DateUTC
12:53 AM,32.0,30.0,92,29.65,5.0,Calm,Calm,-,N/A,,Overcast,0,2013-03-04 06:53:00
1:53 AM,32.0,30.0,92,29.66,4.0,Calm,Calm,-,N/A,,Overcast,0,2013-03-04 07:53:00
2:53 AM,32.0,30.0,92,29.69,3.0,WNW,5.8,-,N/A,,Overcast,290,2013-03-04 08:53:00
3:33 AM,32.0,30.2,93,29.67,2.5,WNW,6.9,-,0.00,Snow,Light Snow,290,2013-03-04 09:33:00
3:42 AM,32.0,30.2,93,29.67,1.2,WNW,6.9,-,0.00,Snow,Light Snow,290,2013-03-04 09:42:00
3:53 AM,32.0,30.0,92,29.70,2.0,WNW,6.9,-,0.00,Snow,Light Snow,290,2013-03-04 09:53:00
4:10 AM,32.0,30.2,93,29.68,2.0,West,9.2,-,0.00,,Overcast,280,2013-03-04 10:10:00
4:19 AM,32.0,30.2,93,29.68,1.8,West,9.2,-,0.00,,Overcast,270,2013-03-04 10:19:00
4:39 AM,32.0,30.2,93,29.69,2.0,West,8.1,-,0.00,,Overcast,280,2013-03-04 10:39:00
4:48 AM,32.0,30.2,93,29.69,2.0,West,8.1,-,0.00,,Overcast,260,2013-03-04 10:48:00
4:53 AM,32.0,30.9,96,29.73,2.5,West,9.2,-,0.00,,Overcast,270,2013-03-04 10:53:00
5:01 AM,32.0,30.2,93,29.68,2.5,WNW,9.2,-,N/A,,Overcast,290,2013-03-04 11:01:00
5:19 AM,32.0,30.2,93,29.69,3.0,WNW,9.2,-,N/A,,Overcast,300,2013-03-04 11:19:00
5:53 AM,30.9,30.0,96,29.74,5.0,WNW,6.9,-,N/A,,Mostly Cloudy,300,2013-03-04 11:53:00
6:53 AM,30.9,28.0,89,29.77,10.0,West,8.1,-,N/A,,Partly Cloudy,260,2013-03-04 12:53:00
7:53 AM,32.0,25.0,75,29.80,10.0,NW,16.1,-,N/A,,Clear,320,2013-03-04 13:53:00
8:53 AM,33.1,24.1,70,29.82,10.0,WNW,13.8,-,N/A,,Clear,300,2013-03-04 14:53:00
9:53 AM,34.0,21.9,61,29.83,10.0,WNW,25.3,31.1,N/A,,Clear,290,2013-03-04 15:53:00
10:53 AM,36.0,21.0,55,29.86,10.0,WNW,27.6,42.6,N/A,,Partly Cloudy,290,2013-03-04 16:53:00
11:53 AM,37.9,19.9,48,29.84,10.0,West,29.9,39.1,N/A,,Partly Cloudy,280,2013-03-04 17:53:00
12:53 PM,37.0,17.1,44,29.84,10.0,WNW,35.7,40.3,N/A,,Partly Cloudy,290,2013-03-04 18:53:00
1:53 PM,37.0,16.0,42,29.82,10.0,WNW,32.2,43.7,N/A,,Partly Cloudy,290,2013-03-04 19:53:00
2:53 PM,35.1,12.9,40,29.85,10.0,WNW,35.7,43.7,N/A,,Partly Cloudy,290,2013-03-04 20:53:00
3:53 PM,33.1,14.0,46,29.87,10.0,West,28.8,40.3,N/A,,Scattered Clouds,280,2013-03-04 21:53:00
4:53 PM,30.0,18.0,61,29.89,9.0,WNW,32.2,44.9,0.00,,Mostly Cloudy,290,2013-03-04 22:53:00
5:27 PM,26.6,21.2,80,29.86,9.0,WNW,27.6,42.6,0.00,Snow,Light Snow,290,2013-03-04 23:27:00
5:53 PM,26.1,21.0,81,29.94,9.0,WNW,32.2,41.4,0.00,Snow,Light Snow,300,2013-03-04 23:53:00
6:32 PM,24.8,21.2,86,29.91,9.0,WNW,28.8,36.8,0.00,Snow,Light Snow,290,2013-03-05 00:32:00
6:50 PM,24.8,17.6,74,29.92,9.0,WNW,34.5,44.9,0.00,Snow,Light Snow,300,2013-03-05 00:50:00
6:53 PM,25.0,18.0,75,29.98,9.0,WNW,35.7,44.9,0.00,Snow,Light Snow,300,2013-03-05 00:53:00
7:53 PM,25.0,17.1,72,30.02,9.0,WNW,34.5,42.6,0.00,Snow,Light Snow,300,2013-03-05 01:53:00
8:53 PM,24.1,15.1,69,30.04,10.0,WNW,33.4,44.9,0.00,,Overcast,300,2013-03-05 02:53:00
9:53 PM,23.0,14.0,68,30.05,9.0,WNW,29.9,44.9,0.00,Snow,Light Snow,300,2013-03-05 03:53:00
10:03 PM,23.0,15.8,74,30.00,9.0,WNW,36.8,49.5,0.00,Snow,Light Snow,300,2013-03-05 04:03:00
10:53 PM,21.9,16.0,78,30.07,9.0,NW,34.5,48.3,0.00,Snow,Light Snow,310,2013-03-05 04:53:00
11:15 PM,21.2,17.6,86,30.02,9.0,WNW,35.7,46.0,0.00,Snow,Light Snow,300,2013-03-05 05:15:00
11:40 PM,21.2,15.8,80,30.01,9.0,NW,38.0,49.5,0.00,Snow,Light Snow,310,2013-03-05 05:40:00
11:53 PM,21.9,16.0,78,30.06,9.0,NW,35.7,49.5,0.00,Snow,Light Snow,310,2013-03-05 05:53:00